SCP
0 0 0 0 0 0 0 0 0 0 0 0 0 0 0 0 -0 0 0 0 0 0
0 0 0 0 0 0 0 0 0 0 0 0 0 0 -0 0 -0 -0 0 0 0 0
0 0 0 0 0 0 0 0 0 0 0 0 0 0 -0 0 -0 -0 0 0 0 0
0 0 0 0 0 0 0 0 0 0 0 0 0 -0 -0 -0 0 -0 0 0 0 0
0 0 0 0 0 0 0 0 0 0 0 0 0 0 0 0 0 0 -0 0 0 0
0 0 0 0 0 0 0 -0 -0 0 0 0 0 0 0 0 -0 -0 0 0 0 0
0 0 0 0 0 0 0 -0 -0 -0 -0 0 0 0 -0 0 -0 0 0 0 0 0
0 0 0 0 0 0 0 -0 -0 -0 -0 -0 -0 -0 -0 -0 0 0 0 0 0 0
0 0 0 0 0 0 0 -0 0 0 0 -0 -0 -0 0 -0 0 0 0 0 0 0
0 0 0 0 0 0 -0 -0 -0 -0 -0 -0 -0 -0 -0 0 0 0 0 0 0 0
0 0 0 0 0 0 0 -0 -0 -0 0 0 0 0 0 0 0 0 0 0 0 0
0 0 0 0 0 0 -0 0 -0 0 0 0 0 0 0 0 0 0 0 0 0 0
0 0 0 0 0 0 0 0 -0 -0 0 0 0 0 0 0 0 0 0 0 0 0
0 0 0 0 0 0 0 0 0 0 0 0 0 0 -0 -0 0 0 0 0 0 0
Wind_Speed_500mb
64 71 79 84 81 78 81 87 85 79 73 73 71 80 67 79 83 100 89 63 115 117
66 78 81 76 78 77 75 78 77 77 79 79 76 75 69 81 82 96 91 72 114 122
80 67 57 63 67 65 68 68 69 72 74 77 79 74 75 81 77 79 86 69 87 123
70 61 55 57 57 59 66 76 81 78 77 77 82 80 76 82 87 71 80 76 60 112
65 63 57 58 64 67 70 74 76 75 75 74 74 72 70 85 83 79 71 90 74 104
65 67 68 64 66 70 74 74 72 70 72 72 70 73 69 82 92 81 85 91 89 104
68 69 74 72 69 69 69 69 70 69 67 65 62 62 79 88 78 81 81 93 106 103
64 68 69 68 68 67 65 65 68 67 62 64 69 74 90 89 68 52 72 88 62 111
62 61 63 66 64 65 66 63 60 63 67 69 72 72 68 58 50 48 49 56 94 112
58 59 58 61 65 65 62 56 51 50 52 42 33 21 24 34 43 37 40 53 85 92
58 58 60 62 60 56 48 37 36 30 23 22 23 26 43 52 60 67 70 75 82 76
57 59 61 61 55 47 40 40 39 34 38 42 48 45 70 78 88 93 95 95 98 97
53 53 56 51 45 40 39 45 48 53 54 50 58 52 94 104 117 119 112 113 110 102
49 52 49 40 35 35 39 46 58 62 64 64 63 68 97 107 113 109 104 106 101 88
Wind_Direction_500mb
313 309 305 304 304 297 294 292 294 295 293 287 279 276 274 279 273 268 277 284 210 211
314 311 304 306 305 300 297 295 295 292 290 284 280 274 272 274 268 269 275 287 214 210
316 317 314 310 307 304 303 298 293 293 291 288 281 277 272 277 265 267 265 280 222 209
322 323 313 310 309 303 293 292 295 299 296 288 278 270 270 271 269 265 259 268 274 212
323 324 318 308 303 302 306 304 305 300 296 289 284 274 269 274 272 262 254 257 264 215
325 325 321 318 317 313 310 307 305 303 297 290 282 277 270 272 274 263 251 257 249 212
329 328 324 321 317 315 314 309 307 302 296 295 287 279 274 279 265 256 253 250 252 222
329 326 324 322 322 322 318 310 303 301 293 287 282 285 275 276 262 253 246 259 232 200
331 329 328 326 325 326 319 315 313 307 301 298 292 285 270 256 249 234 248 226 200 193
342 340 342 335 337 335 333 331 329 326 319 315 305 283 251 242 200 187 180 164 177 172
350 349 351 350 348 349 346 353 351 355 6 40 64 115 149 162 147 139 132 124 133 144
358 358 1 1 356 1 16 31 41 45 56 69 71 88 121 131 125 119 114 118 118 123
4 8 9 4 8 19 37 50 54 61 66 73 79 84 112 116 112 108 109 112 111 114
15 19 17 13 27 42 54 63 67 71 76 85 88 89 109 109 108 109 106 103 104 107
Wind_Speed_850mb
64 71 79 84 81 78 81 87 85 79 73 73 71 80 67 79 83 100 89 63 115 117
66 78 81 76 78 77 75 78 77 77 79 79 76 75 69 81 82 96 91 72 114 122
80 67 57 63 67 65 68 68 69 72 74 77 79 74 75 81 77 79 86 69 87 123
70 61 55 57 57 59 66 76 81 78 77 77 82 80 76 82 87 71 80 76 60 112
65 63 57 58 64 67 70 74 76 75 75 74 74 72 70 85 83 79 71 90 74 104
65 67 68 64 66 70 74 74 72 70 72 72 70 73 69 82 92 81 85 91 89 104
68 69 74 72 69 69 69 69 70 69 67 65 62 62 79 88 78 81 81 93 106 103
64 68 69 68 68 67 65 65 68 67 62 64 69 74 90 89 68 52 72 88 62 111
62 61 63 66 64 65 66 63 60 63 67 69 72 72 68 58 50 48 49 56 94 112
58 59 58 61 65 65 62 56 51 50 52 42 33 21 24 34 43 37 40 53 85 92
58 58 60 62 60 56 48 37 36 30 23 22 23 26 43 52 60 67 70 75 82 76
57 59 61 61 55 47 40 40 39 34 38 42 48 45 70 78 88 93 95 95 98 97
53 53 56 51 45 40 39 45 48 53 54 50 58 52 94 104 117 119 112 113 110 102
49 52 49 40 35 35 39 46 58 62 64 64 63 68 97 107 113 109 104 106 101 88
Wind_Direction_850mb
313 309 305 304 304 297 294 292 294 295 293 287 279 276 274 279 273 268 277 284 210 211
314 311 304 306 305 300 297 295 295 292 290 284 280 274 272 274 268 269 275 287 214 210
316 317 314 310 307 304 303 298 293 293 291 288 281 277 272 277 265 267 265 280 222 209
322 323 313 310 309 303 293 292 295 299 296 288 278 270 270 271 269 265 259 268 274 212
323 324 318 308 303 302 306 304 305 300 296 289 284 274 269 274 272 262 254 257 264 215
325 325 321 318 317 313 310 307 305 303 297 290 282 277 270 272 274 263 251 257 249 212
329 328 324 321 317 315 314 309 307 302 296 295 287 279 274 279 265 256 253 250 252 222
329 326 324 322 322 322 318 310 303 301 293 287 282 285 275 276 262 253 246 259 232 200
331 329 328 326 325 326 319 315 313 307 301 298 292 285 270 256 249 234 248 226 200 193
342 340 342 335 337 335 333 331 329 326 319 315 305 283 251 242 200 187 180 164 177 172
350 349 351 350 348 349 346 353 351 355 6 40 64 115 149 162 147 139 132 124 133 144
358 358 1 1 356 1 16 31 41 45 56 69 71 88 121 131 125 119 114 118 118 123
4 8 9 4 8 19 37 50 54 61 66 73 79 84 112 116 112 108 109 112 111 114
15 19 17 13 27 42 54 63 67 71 76 85 88 89 109 109 108 109 106 103 104 107